This demonstration page uses our WeatherBlox Daily Observations layout. Learn more.

Left ArrowRight Arrow

38.20091, -84.87328

Hourly Observations for April 5, 2020

Temp ( °F °C ) Dew Point ( °F °C ) Humidity (%) Winds ( mph kmh ) Pressure ( in mb ) Visibility ( mi km ) Precip ( " mm )
12:53 am 00:53 Mostly Cloudy 59 15 50 10 72 72 N 6 9 30.00 1016 10 16 0.00 0.00
1:53 am 01:53 Mostly Cloudy 56 13.3 49 9.4 77 77 N 5 7 30.00 1016 10 16 0.00 0.00
2:53 am 02:53 Partly Cloudy 55 12.8 49 9.4 80 80 NNW 6 9 30.00 1016 10 16 0.00 0.00
3:53 am 03:53 Mostly Cloudy 55 12.8 48 8.9 77 77 Calm 29.99 1016 10 16 0.00 0.00
4:53 am 04:53 Mostly Cloudy 53 11.7 48 8.9 83 83 NNW 6 9 30.00 1016 9 14 0.00 0.00
5:53 am 05:53 Cloudy 53 11.7 48 8.9 83 83 WNW 5 7 30.02 1017 8 13 0.00 0.00
6:53 am 06:53 Cloudy 53 11.7 48 8.9 83 83 N 6 9 30.02 1017 9 14 0.00 0.00
7:53 am 07:53 Cloudy 52 11.1 48 8.9 86 86 N 5 7 30.04 1017 7 11 0.00 0.00
8:53 am 08:53 Mostly Cloudy with Mist and Fog 53 11.7 49 9.4 86 86 N 5 7 30.06 1018 6 10 0.00 0.00
9:53 am 09:53 Sunny 57 13.9 50 10 78 78 Calm 30.06 1018 8 13 0.00 0.00
10:53 am 10:53 Sunny 60 15.6 52 11.1 75 75 WNW 3 6 30.07 1018 10 16 0.00 0.00
11:53 am 11:53 Sunny 66 18.9 54 12.2 65 65 Calm 30.07 1018 10 16 0.00 0.00
12:53 pm 12:53 Mostly Sunny 69 20.6 53 11.7 57 57 NNW 6 9 30.06 1018 10 16 0.00 0.00
1:53 pm 13:53 Partly Cloudy 70 21.1 53 11.7 55 55 VRB 6 9 30.05 1018 10 16 0.00 0.00
2:53 pm 14:53 Mostly Cloudy 70 21.1 52 11.1 53 53 VRB 3 6 30.04 1017 10 16 0.00 0.00
3:53 pm 15:53 Cloudy 70 21.1 52 11.1 53 53 NNW 7 11 30.04 1017 10 16 0.00 0.00
4:53 pm 16:53 Mostly Cloudy 70 21.1 52 11.1 53 53 N 9 15 30.03 1017 10 16 0.00 0.00
5:53 pm 17:53 Partly Cloudy 69 20.6 52 11.1 55 55 WNW 6 9 30.04 1017 10 16 0.00 0.00
6:53 pm 18:53 Mostly Cloudy 68 20 52 11.1 57 57 N 7 11 30.05 1018 10 16 0.00 0.00
7:53 pm 19:53 Mostly Sunny 64 17.8 51 10.6 63 63 N 7 11 30.06 1018 10 16 0.00 0.00
8:53 pm 20:53 Clear 60 15.6 49 9.4 67 67 N 9 15 30.07 1018 10 16 0.00 0.00
9:53 pm 21:53 Cloudy 59 15 49 9.4 69 69 N 6 9 30.09 1019 10 16 0.00 0.00
10:53 pm 22:53 Cloudy 57 13.9 49 9.4 74 74 Calm 30.09 1019 10 16 0.00 0.00
11:53 pm 23:53 Cloudy 57 13.9 49 9.4 74 74 N 5 7 30.09 1019 10 16 0.00 0.00

Powered by AerisWeather